Previsão horária em Alindao

Hoje, 20 Janeiro, Quarta-feira

Tempo Temperatura Precipitação Vento Pressão Humidade
00:00 +24°C° 0 mm 1 m/s 718 mmHg 28%
01:00 +24°C° 0 mm 1 m/s 718 mmHg 29%
02:00 +23°C° 0 mm 1 m/s 718 mmHg 30%
03:00 +22°C° 0 mm 1 m/s 718 mmHg 30%
04:00 +22°C° 0 mm 1 m/s 718 mmHg 31%
05:00 +22°C° 0 mm 1 m/s 719 mmHg 30%
06:00 +23°C° 0 mm 1 m/s 719 mmHg 30%
07:00 +25°C° 0 mm 1 m/s 720 mmHg 29%
08:00 +28°C° 0 mm 1 m/s 720 mmHg 24%
09:00 +31°C° 0 mm 2 m/s 720 mmHg 19%
10:00 +36°C° 0 mm 3 m/s 721 mmHg 14%
11:00 +38°C° 0 mm 2 m/s 720 mmHg 13%
12:00 +40°C° 0 mm 2 m/s 719 mmHg 12%
13:00 +41°C° 0 mm 2 m/s 719 mmHg 10%
14:00 +41°C° 0 mm 2 m/s 718 mmHg 10%
15:00 +40°C° 0 mm 2 m/s 717 mmHg 11%
16:00 +40°C° 0 mm 2 m/s 717 mmHg 11%
17:00 +35°C° 0 mm 1 m/s 717 mmHg 15%
18:00 +32°C° 0 mm 1 m/s 717 mmHg 18%
19:00 +28°C° 0 mm 1 m/s 717 mmHg 22%
20:00 +25°C° 0 mm 0 m/s 718 mmHg 24%
21:00 +24°C° 0 mm 0 m/s 718 mmHg 25%
22:00 +23°C° 0 mm 0 m/s 718 mmHg 27%
23:00 +24°C° 0 mm 1 m/s 718 mmHg 28%

Amanhã, 21 Janeiro, Quinta-feira

Tempo Temperatura Precipitação Vento Pressão Humidade
00:00 +24°C° 0 mm 1 m/s 718 mmHg 28%
01:00 +23°C° 0 mm 1 m/s 718 mmHg 28%
02:00 +22°C° 0 mm 1 m/s 718 mmHg 29%
03:00 +21°C° 0 mm 1 m/s 718 mmHg 30%
04:00 +20°C° 0 mm 1 m/s 719 mmHg 32%
05:00 +21°C° 0 mm 1 m/s 719 mmHg 30%
06:00 +21°C° 0 mm 1 m/s 720 mmHg 29%
07:00 +22°C° 0 mm 1 m/s 720 mmHg 27%
08:00 +26°C° 0 mm 1 m/s 720 mmHg 22%
09:00 +30°C° 0 mm 2 m/s 721 mmHg 17%
10:00 +35°C° 0 mm 2 m/s 721 mmHg 11%
11:00 +37°C° 0 mm 2 m/s 720 mmHg 11%
12:00 +39°C° 0 mm 2 m/s 720 mmHg 10%
13:00 +41°C° 0 mm 1 m/s 719 mmHg 9%
14:00 +41°C° 0 mm 1 m/s 718 mmHg 10%
15:00 +40°C° 0 mm 1 m/s 718 mmHg 11%
16:00 +40°C° 0 mm 1 m/s 717 mmHg 11%
17:00 +35°C° 0 mm 1 m/s 717 mmHg 15%
18:00 +31°C° 0 mm 1 m/s 717 mmHg 18%
19:00 +26°C° 0 mm 0 m/s 717 mmHg 21%
20:00 +25°C° 0 mm 0 m/s 717 mmHg 23%
21:00 +24°C° 0 mm 0 m/s 718 mmHg 24%
22:00 +23°C° 0 mm 0 m/s 718 mmHg 25%
23:00 +25°C° 0 mm 1 m/s 718 mmHg 25%

Depois de amanhã, 22 Janeiro, Sexta-feira

Tempo Temperatura Precipitação Vento Pressão Humidade
00:00 +24°C° 0 mm 1 m/s 718 mmHg 26%
01:00 +24°C° 0 mm 1 m/s 718 mmHg 26%
02:00 +23°C° 0 mm 1 m/s 718 mmHg 28%
03:00 +23°C° 0 mm 1 m/s 718 mmHg 29%
04:00 +22°C° 0 mm 1 m/s 718 mmHg 31%
05:00 +23°C° 0 mm 1 m/s 719 mmHg 31%
06:00 +23°C° 0 mm 1 m/s 719 mmHg 32%
07:00 +24°C° 0 mm 1 m/s 720 mmHg 32%
08:00 +28°C° 0 mm 1 m/s 720 mmHg 26%
09:00 +32°C° 0 mm 2 m/s 720 mmHg 20%
10:00 +36°C° 0 mm 2 m/s 720 mmHg 14%
11:00 +39°C° 0 mm 2 m/s 720 mmHg 13%
12:00 +42°C° 0 mm 1 m/s 719 mmHg 12%
13:00 +44°C° 0 mm 1 m/s 718 mmHg 10%
14:00 +43°C° 0 mm 1 m/s 717 mmHg 11%
15:00 +42°C° 0 mm 1 m/s 717 mmHg 11%
16:00 +38°C° 0 mm 0 m/s 716 mmHg 12%
17:00 +34°C° 0 mm 0 m/s 716 mmHg 16%
18:00 +32°C° 0 mm 1 m/s 716 mmHg 20%
19:00 +28°C° 0 mm 1 m/s 716 mmHg 23%
20:00 +26°C° 0 mm 0 m/s 717 mmHg 25%
21:00 +25°C° 0 mm 0 m/s 717 mmHg 27%
22:00 +24°C° 0 mm 0 m/s 717 mmHg 28%
23:00 +23°C° 0 mm 0 m/s 718 mmHg 29%

23 Janeiro, Sábado

Tempo Temperatura Precipitação Vento Pressão Humidade
00:00 +25°C° 0 mm 1 m/s 718 mmHg 29%
01:00 +25°C° 0 mm 1 m/s 718 mmHg 30%
02:00 +24°C° 0 mm 1 m/s 718 mmHg 30%
03:00 +24°C° 0 mm 1 m/s 718 mmHg 30%
04:00 +24°C° 0 mm 1 m/s 718 mmHg 30%
05:00 +24°C° 0 mm 1 m/s 718 mmHg 30%
06:00 +25°C° 0 mm 1 m/s 719 mmHg 31%
07:00 +25°C° 0 mm 1 m/s 719 mmHg 31%
08:00 +29°C° 0 mm 2 m/s 719 mmHg 25%
09:00 +34°C° 0 mm 2 m/s 720 mmHg 19%
10:00 +38°C° 0 mm 2 m/s 720 mmHg 13%
11:00 +41°C° 0 mm 2 m/s 719 mmHg 12%
12:00 +43°C° 0 mm 1 m/s 718 mmHg 11%
13:00 +46°C° 0 mm 1 m/s 717 mmHg 10%
14:00 +45°C° 0 mm 1 m/s 717 mmHg 11%
15:00 +43°C° 0 mm 1 m/s 716 mmHg 12%
16:00 +42°C° 0 mm 1 m/s 715 mmHg 12%
17:00 +35°C° 0 mm 0 m/s 715 mmHg 16%
18:00 +31°C° 0 mm 0 m/s 715 mmHg 20%
19:00 +27°C° 0 mm 0 m/s 715 mmHg 24%
20:00 +27°C° 0 mm 0 m/s 716 mmHg 25%
21:00 +26°C° 0 mm 0 m/s 717 mmHg 25%
22:00 +27°C° 0 mm 1 m/s 717 mmHg 26%
23:00 +27°C° 0 mm 1 m/s 717 mmHg 27%

24 Janeiro, Domingo

Tempo Temperatura Precipitação Vento Pressão Humidade
00:00 +26°C° 0 mm 1 m/s 717 mmHg 28%
01:00 +25°C° 0 mm 1 m/s 717 mmHg 29%
02:00 +25°C° 0 mm 1 m/s 717 mmHg 29%
03:00 +25°C° 0 mm 1 m/s 718 mmHg 29%
04:00 +25°C° 0 mm 1 m/s 718 mmHg 28%
05:00 +24°C° 0 mm 0 m/s 718 mmHg 29%
06:00 +24°C° 0 mm 0 m/s 719 mmHg 29%
07:00 +24°C° 0 mm 0 m/s 719 mmHg 30%
08:00 +30°C° 0 mm 1 m/s 719 mmHg 25%
09:00 +35°C° 0 mm 2 m/s 720 mmHg 19%
10:00 +39°C° 0 mm 2 m/s 720 mmHg 14%
11:00 +40°C° 0 mm 2 m/s 719 mmHg 13%
12:00 +42°C° 0 mm 2 m/s 718 mmHg 12%
13:00 +43°C° 0 mm 2 m/s 717 mmHg 12%
14:00 +42°C° 0 mm 2 m/s 716 mmHg 12%
15:00 +42°C° 0 mm 2 m/s 716 mmHg 12%
16:00 +41°C° 0 mm 2 m/s 715 mmHg 12%
17:00 +38°C° 0 mm 2 m/s 715 mmHg 16%
18:00 +34°C° 0 mm 1 m/s 715 mmHg 19%
19:00 +31°C° 0 mm 1 m/s 715 mmHg 23%
20:00 +29°C° 0 mm 1 m/s 716 mmHg 25%
21:00 +28°C° 0 mm 1 m/s 717 mmHg 28%
22:00 +27°C° 0 mm 1 m/s 717 mmHg 30%
23:00 +26°C° 0 mm 1 m/s 717 mmHg 33%

25 Janeiro, Segunda-feira

Tempo Temperatura Precipitação Vento Pressão Humidade
00:00 +24°C° 0 mm 0 m/s 717 mmHg 37%
01:00 +23°C° 0 mm 0 m/s 717 mmHg 40%
02:00 +22°C° 0 mm 0 m/s 717 mmHg 43%
03:00 +22°C° 0 mm 0 m/s 718 mmHg 46%
04:00 +22°C° 0 mm 0 m/s 718 mmHg 49%
05:00 +22°C° 0 mm 0 m/s 718 mmHg 49%
06:00 +23°C° 0 mm 0 m/s 719 mmHg 49%
07:00 +24°C° 0 mm 0 m/s 720 mmHg 49%
08:00 +29°C° 0 mm 1 m/s 720 mmHg 45%
09:00 +32°C° 0 mm 2 m/s 720 mmHg 41%
10:00 +37°C° 0 mm 2 m/s 721 mmHg 36%
11:00 +38°C° 0 mm 2 m/s 720 mmHg 32%
12:00 +39°C° 0 mm 1 m/s 719 mmHg 28%
13:00 +41°C° 0 mm 1 m/s 718 mmHg 24%
14:00 +39°C° 0 mm 1 m/s 717 mmHg 27%
15:00 +38°C° 0 mm 2 m/s 717 mmHg 29%
16:00 +36°C° 0 mm 2 m/s 716 mmHg 32%
17:00 +34°C° 0 mm 2 m/s 716 mmHg 40%
18:00 +30°C° 0 mm 2 m/s 716 mmHg 48%
19:00 +28°C° 0 mm 2 m/s 717 mmHg 56%
20:00 +27°C° 0 mm 2 m/s 717 mmHg 57%
21:00 +26°C° 0 mm 1 m/s 717 mmHg 59%
22:00 +26°C° 0 mm 1 m/s 718 mmHg 61%
23:00 +25°C° 0 mm 1 m/s 718 mmHg 64%
Mostrar mais

Necessitamos do seu Consentimento

A Meteoprog e os seus Fornecedores de Serviços podem armazenar e aceder a dados pessoais como cookies, identificadores do dispositivo ou outras tecnologias semelhantes existentes no seu dispositivo e processar estes dados para personalizar conteúdos e anúncios, assim como funcionalidades nas redes sociais e análise de tráfego.

  • Armazenar e/ou aceder a informações no seu dispositivo

    Os cookies, identificadores do dispositivo ou outras informações podem ser armazenados ou acedidos no seu dispositivo, para os fins acima indicados.

  • Anúncios e conteúdos personalizados, medição de anúncios e conteúdos, dados sobre o público-alvo e desenvolvimento de produtos

    Os anúncios e os conteúdos podem ser personalizados com base num perfil. Podem ser adicionados dados adicionais para uma maior personalização dos anúncios e dos conteúdos. A eficácia dos anúncios e dos conteúdos pode ser medida. Podem ser obtidas informações sobre o público que visualizou os anúncios e os conteúdos. Estes dados podem ser usados para desenvolver ou melhorar sistemas, softwares ou a experiência do utilizador.

Ao clicar em "Eu concordo”, permitirá o uso de cookies, identificadores do dispositivo e web beacons mencionados ou outras tecnologias semelhantes. As configurações do navegador do seu dispositivo podem ser alteradas.

Para certos fins, podem ser invocados interesses legítimos ao invés de consentimento. Pode ler mais informação sobre este assunto na nossa Política de Privacidade e Cookies.